Wind_Speed
7 7 8 8 8 9 9 9 9 8 9 9 9 9 10 10 10 10 10 10 10 10 11 11 11 11 11 11 11 11 11 12 13 12 12 12 12 12 12 11 11 11 11
6 6 7 7 8 8 9 9 9 9 9 9 10 10 10 10 10 10 11 11 11 11 11 11 11 12 12 11 12 12 12 12 13 13 13 13 13 13 13 13 12 12 12
6 6 6 7 7 7 8 8 8 8 8 8 9 9 10 10 9 10 11 11 11 11 11 11 11 12 12 12 13 13 12 12 13 13 14 14 13 13 13 13 13 12 12
6 6 6 6 7 7 7 7 7 7 7 7 8 8 8 9 10 10 11 11 11 11 11 11 11 11 12 12 13 13 13 13 13 14 14 14 14 14 14 13 13 13 13
6 6 6 6 6 7 7 7 7 7 7 8 8 8 8 8 9 10 10 10 11 12 12 12 12 12 12 12 12 13 13 13 14 14 14 14 14 13 13 13 13 13 13
6 7 7 7 7 7 7 7 7 7 7 8 8 8 8 8 8 8 9 9 9 9 9 10 10 11 11 12 12 11 12 13 13 14 14 14 14 13 12 13 13 13 13
7 7 7 7 7 7 8 8 8 7 7 7 7 7 7 8 8 8 8 8 9 9 9 9 10 10 11 11 10 10 11 12 12 12 13 14 14 13 13 14 14 14 14
7 7 7 6 7 7 7 7 7 6 7 7 7 7 7 7 8 8 8 8 9 9 9 9 10 10 11 10 10 10 11 11 11 11 12 13 13 13 13 14 15 15 16
6 6 6 7 7 6 5 5 6 6 6 6 7 7 7 8 9 9 9 9 9 9 9 8 9 9 10 10 10 10 10 10 9 10 11 12 12 13 14 14 14 15 15
5 6 6 7 6 6 5 5 5 6 6 6 7 8 8 8 9 9 9 9 9 9 9 8 9 9 9 10 10 11 10 10 10 10 11 12 13 13 14 14 14 15 15
6 6 6 6 6 6 6 6 6 6 7 7 8 8 9 9 9 9 9 9 9 10 9 9 9 9 9 10 10 10 9 10 10 10 11 11 12 12 13 13 13 13 13
7 7 7 7 7 8 8 7 7 7 7 8 8 8 9 9 10 10 9 9 10 10 10 10 10 9 9 9 10 9 10 10 10 10 10 11 11 12 13 13 13 13 13
8 9 8 8 9 9 8 8 8 8 8 8 8 9 9 10 10 10 9 9 9 10 10 10 11 11 11 10 10 10 11 10 10 10 11 11 12 12 13 14 14 14 15
10 10 10 10 10 10 10 10 10 10 9 9 9 9 9 10 10 10 10 10 10 10 10 11 11 12 12 11 11 11 11 11 11 12 12 12 12 12 13 13 14 15 16
12 12 12 11 11 11 11 11 11 11 11 10 10 10 9 9 9 10 11 11 11 11 11 12 12 12 11 11 11 11 11 12 13 13 13 13 13 13 13 14 15 15 16
13 13 13 13 13 13 13 13 12 12 12 11 11 11 10 10 11 11 11 11 11 11 11 11 11 12 12 12 12 12 13 13 13 13 14 14 14 14 14 15 15 15 16
14 14 14 14 14 14 14 14 14 14 13 13 13 12 12 12 12 11 11 11 11 11 12 12 12 12 13 13 13 13 13 14 14 14 15 15 15 15 16 16 17 17 18
16 16 16 15 15 15 15 15 15 14 14 14 14 13 13 13 13 13 13 12 12 12 12 12 12 13 13 14 14 15 15 14 15 15 16 16 16 17 17 18 18 18 19
19 18 17 17 16 16 16 15 15 15 15 15 14 14 13 13 13 13 13 14 13 13 13 13 13 14 14 14 15 15 16 16 16 17 17 17 18 18 19 19 19 19 19
19 19 18 18 18 18 17 17 16 16 16 16 16 15 15 15 14 14 14 14 14 14 15 15 15 15 15 15 16 16 16 17 17 18 18 19 19 20 20 20 21 21 21
21 20 19 19 19 19 19 18 18 17 17 17 17 17 16 16 16 16 16 16 16 16 16 17 17 17 17 17 17 17 18 18 18 19 19 20 20 21 21 21 22 23 23
22 22 21 20 19 19 19 19 19 18 18 17 17 17 17 18 17 18 18 18 18 18 18 19 19 19 18 18 18 19 18 19 19 19 20 20 21 22 23 23 23 23 23
22 22 22 21 20 19 19 19 19 19 18 18 18 18 18 18 18 18 19 20 20 20 20 20 20 20 20 20 20 20 20 20 20 21 21 22 23 23 24 23 23 23 23
23 22 22 22 21 21 21 20 20 19 19 19 18 18 19 19 19 20 21 21 21 21 21 21 21 22 22 22 22 22 22 22 22 22 23 23 24 24 24 24 24 24 25
22 23 23 23 23 23 22 22 22 22 22 21 21 21 21 21 22 22 22 21 22 22 23 23 23 24 24 24 24 24 24 24 24 24 25 25 25 25 25 25 26 26 26
23 24 23 23 24 24 23 23 24 24 24 24 24 24 24 23 23 23 23 23 23 23 24 24 25 25 25 25 25 26 26 26 26 26 27 27 27 28 28 28 28 28 28
Wind_Direction
273 271 273 273 270 269 267 264 260 260 260 258 259 260 259 258 253 249 246 247 250 254 254 254 256 259 262 263 263 264 264 264 263 262 262 264 264 265 265 264 266 267 268
272 272 274 271 266 267 265 260 259 258 257 257 257 257 259 258 254 251 249 250 253 256 254 255 258 260 264 265 266 265 265 263 260 262 262 263 263 264 266 265 266 267 269
270 273 275 276 275 271 268 264 261 261 258 257 256 256 258 256 255 253 252 253 256 258 258 259 263 263 264 266 267 266 266 264 261 262 263 263 264 264 265 265 265 266 268
276 272 274 278 277 275 270 266 265 264 262 261 262 265 265 262 259 257 256 257 257 260 259 263 264 263 266 267 266 265 266 265 264 264 262 262 262 262 263 263 264 264 265
272 271 278 282 282 280 276 270 266 264 265 265 263 263 263 261 261 262 263 263 261 262 262 264 262 263 265 266 265 267 268 266 267 265 261 259 261 261 261 263 264 264 264
276 275 278 280 281 281 277 270 267 267 267 268 264 261 257 255 261 262 263 266 265 264 263 265 264 263 264 263 266 268 270 271 268 265 259 257 259 260 261 262 264 266 266
278 277 280 281 277 275 274 274 272 271 269 271 269 266 259 256 262 260 261 267 269 268 265 266 266 264 263 265 266 268 273 270 269 263 259 258 259 260 261 263 265 268 270
279 279 282 285 282 278 275 273 271 269 268 269 270 272 267 266 264 265 265 267 266 268 268 266 267 264 265 268 268 269 277 273 270 266 263 265 266 264 264 266 267 270 271
278 277 282 286 286 284 276 269 269 266 268 267 269 270 267 269 269 269 268 268 266 267 268 267 266 265 267 267 268 270 275 275 273 270 269 271 269 270 271 272 272 273 274
273 274 278 283 281 278 277 279 275 271 272 273 273 274 273 272 269 269 269 269 269 267 266 263 264 264 266 265 267 270 275 278 278 275 274 273 272 272 272 273 274 276 275
270 275 279 281 277 271 275 280 281 277 273 274 275 275 276 274 270 269 269 268 267 265 264 263 263 265 268 269 269 271 277 279 279 277 277 277 274 274 274 274 275 277 277
271 274 276 275 273 270 270 273 282 283 278 275 274 275 275 274 271 269 266 265 265 266 265 264 263 266 270 271 271 274 280 281 281 280 282 283 280 275 275 276 275 274 275
271 274 275 273 273 272 271 274 280 280 281 280 279 277 275 274 269 268 266 263 263 266 266 264 265 267 270 269 270 273 278 279 280 281 283 285 285 281 277 275 274 274 276
270 272 273 270 271 271 270 273 275 277 279 280 282 282 278 274 267 265 264 264 264 266 268 269 270 270 269 271 272 274 275 280 281 282 281 283 284 284 282 278 278 278 279
273 271 270 270 270 270 270 271 272 273 275 277 279 281 280 276 272 269 267 267 266 267 271 273 272 271 272 275 277 276 279 281 282 282 280 282 284 286 287 286 285 286 281
273 273 271 270 270 271 270 270 272 273 274 275 276 277 275 272 272 271 269 267 266 268 271 274 274 275 275 277 279 280 281 281 281 281 281 281 283 286 288 289 289 287 284
270 271 271 269 270 271 270 270 271 272 273 273 273 274 273 270 268 270 273 273 268 270 270 273 274 276 277 278 280 281 282 283 284 283 282 283 284 287 289 289 288 285 283
268 268 268 268 269 270 269 269 268 270 271 273 273 272 272 269 268 269 271 272 269 270 270 271 275 277 278 279 281 280 281 283 284 284 285 286 286 289 291 290 289 288 286
268 267 266 266 267 268 268 268 267 268 269 270 271 270 270 270 270 269 269 269 268 269 270 271 274 279 281 283 283 282 281 282 283 283 285 286 286 288 289 290 288 289 288
266 264 265 267 266 265 266 267 268 269 269 269 269 268 268 268 267 267 268 268 268 269 270 273 274 278 282 283 283 284 282 283 282 283 285 286 286 287 288 289 288 287 286
266 265 265 266 266 265 265 264 265 267 267 268 268 267 267 267 266 266 267 267 268 270 271 273 275 278 280 281 282 283 282 281 281 283 286 286 286 287 288 289 288 286 286
267 265 265 265 264 263 262 263 264 263 263 264 267 268 268 267 267 265 266 267 269 271 272 273 275 278 279 280 280 280 281 282 282 283 285 287 288 288 289 289 288 288 288
266 264 263 264 263 262 260 261 262 262 263 265 266 268 268 268 268 267 267 268 270 272 273 273 274 276 278 279 279 281 282 282 282 282 283 286 288 290 289 288 287 287 286
264 264 263 264 263 262 261 260 261 262 263 265 266 267 267 268 268 268 268 268 269 271 272 273 274 276 278 278 279 281 283 282 283 283 283 285 287 288 287 287 286 285 285
264 265 266 264 263 262 263 263 263 264 264 265 267 267 267 267 267 269 269 268 269 270 271 273 275 278 279 278 279 281 281 282 283 283 284 284 285 284 285 287 287 287 285
267 266 267 265 264 263 264 264 264 265 265 264 264 265 266 267 267 267 268 269 269 271 273 275 276 278 280 280 280 280 281 280 281 282 282 283 283 283 283 285 286 286 285
Height
5838 5838 5838 5837 5837 5838 5838 5838 5838 5839 5839 5839 5840 5840 5841 5841 5841 5842 5843 5843 5844 5845 5845 5846 5846 5847 5848 5848 5849 5849 5849 5850 5850 5850 5851 5851 5852 5852 5853 5853 5853 5854 5854
5836 5836 5836 5836 5836 5836 5836 5836 5836 5836 5837 5837 5837 5838 5838 5839 5839 5840 5840 5841 5842 5842 5843 5843 5844 5844 5845 5845 5846 5846 5846 5846 5847 5847 5848 5848 5849 5850 5850 5850 5851 5851 5852
5835 5835 5835 5834 5834 5834 5834 5834 5834 5834 5834 5835 5835 5836 5836 5837 5837 5837 5838 5839 5839 5840 5840 5840 5841 5841 5842 5842 5842 5843 5843 5843 5843 5844 5844 5845 5846 5846 5847 5847 5848 5848 5849
5833 5833 5833 5833 5832 5832 5832 5832 5832 5832 5832 5833 5833 5833 5834 5834 5835 5835 5835 5836 5836 5837 5837 5837 5838 5838 5839 5839 5839 5840 5840 5840 5840 5840 5841 5842 5842 5843 5844 5844 5845 5845 5846
5832 5832 5831 5831 5831 5830 5830 5830 5830 5830 5830 5830 5831 5831 5832 5832 5832 5833 5833 5833 5834 5834 5834 5835 5835 5836 5836 5836 5836 5836 5836 5836 5836 5836 5837 5838 5839 5840 5840 5841 5842 5842 5842
5830 5830 5830 5829 5829 5829 5828 5828 5828 5828 5828 5828 5829 5829 5829 5830 5830 5830 5830 5831 5831 5831 5832 5832 5832 5833 5833 5833 5833 5833 5833 5832 5831 5831 5832 5834 5835 5836 5837 5838 5838 5839 5839
5828 5828 5828 5828 5827 5827 5827 5827 5826 5826 5827 5827 5827 5827 5827 5827 5828 5828 5828 5828 5829 5829 5829 5829 5830 5830 5831 5831 5831 5831 5830 5829 5828 5827 5829 5831 5832 5833 5834 5835 5835 5836 5836
5827 5826 5826 5826 5826 5825 5825 5825 5825 5825 5825 5825 5825 5825 5825 5826 5825 5826 5826 5826 5826 5826 5826 5827 5827 5828 5828 5828 5828 5828 5828 5827 5826 5826 5827 5829 5829 5830 5831 5831 5832 5832 5832
5825 5825 5824 5824 5824 5824 5823 5823 5823 5823 5823 5823 5823 5823 5823 5823 5823 5823 5823 5824 5824 5824 5824 5824 5825 5825 5825 5826 5826 5826 5826 5825 5825 5825 5826 5826 5827 5827 5827 5828 5828 5828 5828
5823 5823 5823 5823 5822 5822 5822 5822 5821 5821 5821 5821 5821 5821 5821 5821 5821 5821 5821 5821 5821 5822 5822 5822 5822 5822 5822 5823 5823 5823 5823 5823 5823 5823 5823 5823 5824 5824 5824 5824 5824 5824 5824
5822 5822 5821 5821 5821 5821 5820 5820 5820 5819 5819 5819 5819 5818 5818 5818 5818 5818 5818 5819 5819 5819 5819 5820 5820 5820 5820 5820 5820 5821 5821 5821 5821 5820 5820 5820 5821 5821 5821 5820 5820 5820 5820
5820 5820 5819 5819 5819 5819 5818 5818 5818 5817 5817 5817 5816 5816 5816 5816 5816 5816 5816 5816 5817 5817 5817 5817 5817 5817 5817 5818 5818 5818 5818 5818 5818 5818 5817 5817 5817 5817 5817 5817 5817 5817 5816
5818 5818 5817 5817 5817 5816 5816 5816 5816 5815 5815 5814 5814 5814 5813 5813 5813 5813 5814 5814 5814 5814 5815 5815 5815 5815 5815 5815 5815 5815 5815 5815 5815 5815 5815 5815 5814 5814 5813 5813 5813 5813 5812
5816 5815 5815 5815 5814 5814 5814 5813 5813 5813 5812 5812 5811 5811 5810 5810 5810 5810 5811 5811 5811 5812 5812 5812 5812 5812 5812 5812 5812 5812 5812 5812 5812 5812 5812 5812 5811 5811 5810 5810 5809 5809 5808
5813 5813 5812 5812 5811 5811 5811 5810 5810 5810 5810 5809 5809 5808 5808 5808 5808 5808 5808 5809 5809 5809 5809 5809 5809 5809 5809 5809 5809 5809 5809 5809 5809 5809 5809 5808 5808 5807 5807 5806 5805 5804 5803
5810 5809 5809 5809 5808 5808 5807 5807 5807 5807 5807 5806 5806 5806 5806 5805 5805 5805 5805 5805 5806 5806 5806 5806 5806 5806 5806 5806 5806 5806 5806 5806 5806 5805 5805 5805 5804 5804 5803 5802 5801 5801 5800
5806 5805 5805 5805 5805 5804 5804 5804 5803 5803 5803 5803 5803 5803 5802 5802 5802 5802 5802 5802 5803 5803 5803 5803 5803 5803 5803 5803 5803 5802 5802 5802 5802 5801 5801 5801 5800 5799 5799 5798 5797 5796 5795
5801 5801 5801 5801 5800 5800 5800 5800 5800 5800 5800 5799 5799 5799 5799 5798 5799 5799 5799 5799 5799 5799 5800 5800 5800 5800 5799 5799 5799 5799 5798 5798 5798 5797 5797 5796 5796 5795 5794 5793 5792 5791 5790
5796 5796 5796 5796 5796 5796 5796 5796 5795 5795 5795 5796 5795 5795 5795 5795 5795 5795 5796 5796 5796 5796 5796 5797 5796 5796 5796 5795 5795 5795 5794 5794 5793 5793 5792 5792 5791 5790 5789 5788 5787 5786 5785
5790 5790 5791 5791 5791 5791 5791 5791 5791 5791 5791 5791 5791 5791 5791 5791 5791 5792 5792 5792 5792 5792 5792 5793 5792 5792 5792 5791 5791 5790 5790 5789 5789 5788 5787 5787 5786 5785 5784 5783 5782 5780 5779
5784 5784 5785 5785 5785 5785 5785 5786 5786 5786 5786 5786 5787 5787 5787 5787 5787 5788 5788 5788 5788 5788 5788 5788 5788 5788 5788 5787 5786 5786 5785 5784 5784 5783 5782 5781 5780 5779 5778 5777 5775 5774 5773
5778 5778 5779 5779 5779 5779 5780 5780 5781 5781 5781 5782 5782 5782 5782 5782 5782 5783 5783 5783 5784 5784 5783 5783 5783 5783 5782 5782 5781 5781 5780 5780 5779 5778 5777 5776 5775 5773 5772 5770 5769 5767 5766
5771 5772 5772 5773 5773 5774 5774 5774 5775 5775 5776 5776 5776 5777 5777 5777 5777 5777 5778 5778 5778 5778 5778 5778 5778 5777 5777 5777 5776 5775 5774 5773 5773 5772 5771 5770 5768 5767 5765 5764 5762 5761 5760
5765 5765 5766 5766 5767 5767 5768 5768 5769 5769 5770 5770 5771 5771 5771 5771 5771 5772 5772 5772 5772 5772 5772 5772 5772 5771 5771 5770 5770 5769 5768 5767 5766 5765 5764 5763 5762 5760 5758 5757 5755 5754 5753
5758 5758 5759 5759 5760 5761 5761 5761 5762 5763 5763 5764 5764 5765 5765 5765 5765 5766 5766 5766 5766 5766 5765 5765 5765 5764 5764 5763 5763 5762 5761 5760 5759 5758 5757 5756 5755 5753 5751 5750 5748 5746 5745
5750 5751 5752 5752 5753 5753 5754 5754 5755 5756 5757 5757 5758 5758 5758 5758 5758 5758 5759 5759 5759 5759 5759 5758 5758 5757 5756 5756 5755 5755 5754 5753 5752 5751 5749 5748 5747 5745 5744 5742 5740 5738 5736